Wind_Speed
30 32 33 34 35 35 36 36 37 38 39 40 42 43 44 46 48 49 51 53 54 54 55 56 57 58 58 59 60 60 61 61 60 60 60 59 59 59 58 58 57 56 55
31 32 33 34 34 34 34 35 35 36 38 38 40 42 42 43 45 46 48 50 52 53 54 54 55 57 57 57 59 59 59 59 59 59 60 60 59 60 59 60 59 58 57
31 32 33 33 33 34 34 35 35 36 37 38 39 40 41 42 44 46 47 49 51 51 52 52 53 54 54 55 57 57 57 58 58 59 60 60 60 59 59 60 60 59 58
31 32 33 33 33 33 34 35 35 36 37 38 40 41 43 43 44 46 47 48 49 50 50 50 51 52 52 52 53 54 55 57 57 57 59 59 59 59 59 59 58 57 58
32 32 33 34 34 34 34 35 35 36 37 39 42 43 43 44 45 46 46 47 48 48 48 49 49 50 51 52 53 53 54 55 56 55 57 57 58 58 58 58 57 57 58
32 33 33 34 35 35 35 35 35 37 38 39 41 43 43 43 44 45 46 47 47 47 47 48 50 51 52 51 52 53 54 55 55 55 55 56 57 57 57 58 57 57 57
34 34 34 35 35 36 36 37 37 38 38 40 42 43 43 44 44 45 45 46 46 47 48 49 50 51 52 52 52 54 54 54 54 55 55 56 57 57 57 58 57 55 54
34 35 36 36 36 36 36 38 38 39 40 41 42 43 44 45 45 45 45 46 47 48 47 48 50 50 51 52 52 53 53 54 55 55 56 55 56 57 56 57 56 55 54
34 35 35 35 36 36 37 38 39 40 41 41 42 43 44 45 45 46 47 47 46 46 47 48 49 50 50 51 51 52 52 53 54 54 55 55 55 55 54 54 55 54 53
34 35 34 34 35 36 37 38 39 40 41 43 43 44 45 46 46 46 47 48 47 46 47 47 49 50 51 52 52 52 52 52 52 52 52 53 53 53 52 52 52 51 51
35 35 35 35 36 37 38 39 40 41 42 42 43 44 44 45 45 46 47 47 47 46 47 47 49 49 50 51 51 51 51 51 50 50 50 49 50 50 50 51 51 49 48
35 35 36 36 37 38 38 39 40 41 42 43 44 45 44 44 45 45 45 45 46 46 46 46 46 47 48 50 51 50 49 49 48 48 48 47 48 49 49 48 49 47 46
35 35 36 36 38 39 39 40 41 41 42 43 44 44 44 44 44 45 45 45 45 45 45 44 45 46 47 47 47 47 47 47 47 47 45 44 46 46 46 47 47 46 45
36 36 37 38 39 39 40 41 42 43 43 44 44 43 43 43 44 43 43 43 43 43 44 43 44 45 44 44 43 44 45 44 43 44 43 43 44 44 44 45 46 45 43
36 37 38 39 39 40 41 42 42 43 44 43 43 42 42 42 42 42 42 43 43 43 43 42 42 42 42 42 42 42 42 40 39 40 40 40 41 41 42 44 44 44 42
36 37 38 39 40 41 41 42 42 42 42 42 42 41 41 42 42 42 42 43 42 42 42 41 40 40 40 40 39 39 38 37 36 37 38 38 39 40 41 43 43 43 41
37 37 38 39 39 40 41 42 42 42 42 42 41 41 41 42 42 42 43 42 41 41 40 39 38 37 37 36 36 35 35 34 34 34 35 35 36 38 40 40 40 40 40
38 38 38 38 39 40 41 41 42 42 42 41 40 41 41 41 42 41 41 40 39 39 38 37 36 35 34 32 32 32 31 31 31 32 33 33 33 35 36 37 37 37 38
38 38 39 38 39 40 40 40 41 41 41 40 40 40 41 41 40 40 39 38 37 36 35 33 32 31 29 28 28 27 27 28 28 29 30 29 31 33 35 35 35 36 37
38 38 38 38 38 39 39 40 40 39 39 38 39 39 40 39 39 38 37 35 34 33 32 32 30 27 25 24 24 25 25 24 25 26 27 26 28 30 32 34 35 35 36
37 38 38 38 38 39 38 38 38 37 37 37 37 38 38 37 37 36 35 33 33 31 30 29 26 24 22 21 21 22 22 21 22 24 24 24 27 29 30 31 32 32 34
37 37 37 37 38 38 37 37 36 36 35 36 36 36 35 35 34 34 32 32 31 29 27 25 23 22 22 20 19 18 19 19 20 21 22 23 24 26 27 28 29 30 32
36 36 36 36 37 36 36 36 35 34 34 34 34 33 32 32 31 31 30 30 29 26 24 22 21 20 19 18 16 15 16 17 17 18 19 19 21 23 24 25 26 28 29
36 36 36 36 36 36 36 35 34 34 33 33 32 32 31 31 30 29 29 28 26 24 22 21 19 16 14 13 12 11 11 12 13 15 16 16 18 20 20 21 23 25 26
36 36 36 36 35 35 35 34 33 33 32 31 31 30 30 29 29 28 27 25 24 23 22 19 17 14 12 12 11 10 10 9 11 14 15 16 18 19 20 21 22 24 25
36 36 36 35 34 34 33 33 33 32 32 30 30 29 29 29 29 28 25 24 23 22 20 18 16 13 12 11 11 10 10 10 11 13 14 16 18 19 21 22 23 24 24
Wind_Direction
281 282 282 282 281 281 281 282 282 281 278 277 276 275 275 275 274 272 270 268 267 267 267 267 267 266 265 265 264 265 265 264 263 261 260 259 259 258 257 257 258 258 258
283 283 283 283 282 281 282 282 283 282 282 282 281 279 279 278 276 274 273 271 269 269 269 268 267 267 266 265 265 265 266 265 263 261 260 260 259 258 257 256 257 257 257
285 285 284 283 283 283 283 284 285 284 284 283 283 282 281 280 278 276 275 274 272 271 270 269 268 268 268 267 266 266 265 264 262 261 261 260 258 257 256 255 255 256 256
286 286 284 283 284 284 285 286 286 285 285 283 283 285 284 282 281 279 278 277 274 272 271 270 269 269 269 268 268 267 266 264 263 262 262 261 260 259 256 254 254 254 255
287 286 285 285 285 286 287 287 287 287 287 286 286 286 286 285 284 283 280 279 276 273 272 272 272 272 270 269 269 268 267 266 265 264 263 262 260 259 258 255 253 253 254
288 286 286 285 286 287 287 286 287 288 290 290 289 288 288 288 287 285 283 281 279 275 275 275 274 275 273 271 269 268 267 266 265 264 263 262 261 260 259 256 253 252 253
288 287 286 286 286 286 286 287 288 290 292 292 291 290 290 289 289 288 286 284 281 277 277 276 275 277 276 274 272 269 267 266 265 264 263 262 262 260 258 256 254 253 251
289 288 287 287 287 287 287 288 289 290 292 293 293 292 291 291 291 290 289 287 284 280 278 278 276 276 276 275 274 272 269 267 266 265 263 263 262 260 258 256 254 253 251
290 289 288 287 288 289 290 290 290 291 293 293 293 292 292 291 291 292 291 290 287 283 282 281 278 278 276 275 274 272 271 269 267 265 263 261 261 258 256 254 253 253 251
291 290 289 288 289 291 291 292 292 293 293 294 294 293 293 293 293 293 293 293 289 286 286 283 280 279 277 275 274 274 272 270 267 266 264 261 258 255 253 251 251 252 249
293 290 289 290 290 292 293 293 294 293 293 294 295 296 296 295 294 294 294 294 291 288 286 284 282 280 277 276 275 274 272 269 267 265 264 260 256 253 251 249 248 248 248
293 292 292 291 292 293 294 294 295 295 295 296 297 297 296 297 296 295 295 294 293 291 289 285 284 282 279 277 275 273 271 270 267 264 262 259 255 251 249 247 245 245 246
293 291 292 292 292 293 294 295 296 297 297 298 298 297 298 298 298 297 295 296 294 293 291 287 286 284 281 279 275 273 271 269 266 263 259 255 253 249 246 244 242 242 244
292 292 292 293 294 294 295 296 297 297 298 298 298 298 299 299 300 299 297 297 297 297 294 290 287 286 283 280 276 273 271 268 264 260 256 252 250 246 243 242 240 240 242
292 293 293 295 295 295 296 297 298 298 299 299 299 299 300 301 302 301 299 297 296 297 295 292 289 286 283 280 276 272 270 267 263 259 254 251 248 244 241 240 239 239 240
293 294 295 295 295 296 297 298 299 299 300 300 300 299 300 302 302 302 301 299 297 297 297 294 290 288 284 280 276 272 268 264 261 256 252 249 245 242 239 240 239 239 239
293 295 296 296 295 296 297 299 300 301 300 300 300 300 300 302 302 301 302 301 298 298 298 295 292 290 286 281 276 271 267 263 259 255 250 247 244 241 238 238 238 238 238
294 295 295 295 295 296 298 299 300 301 301 299 299 300 301 302 302 302 302 300 299 299 298 295 292 291 287 281 276 270 264 260 257 252 247 245 243 240 238 237 236 235 233
293 293 294 294 295 296 298 299 299 300 300 300 300 301 302 303 303 302 302 300 300 299 298 295 292 291 287 281 275 267 260 258 253 248 243 243 241 238 236 234 231 231 231
290 291 293 294 295 297 298 299 299 299 299 300 301 302 303 304 304 303 302 300 300 299 298 297 292 289 286 282 274 265 258 254 250 246 243 241 240 236 232 231 230 231 231
291 291 292 293 294 296 297 298 299 299 299 300 302 304 304 304 304 304 302 300 300 299 298 296 291 287 286 282 276 266 256 251 248 245 239 237 236 233 230 230 231 231 230
291 291 292 294 295 296 297 297 298 299 299 301 302 304 305 305 306 305 304 303 301 298 296 293 289 286 286 283 278 267 256 251 248 243 238 234 231 227 226 228 228 228 227
292 293 294 295 297 297 297 296 297 298 299 301 302 303 304 306 305 304 304 304 302 299 295 294 293 288 285 280 272 264 255 249 245 240 234 227 223 219 221 223 222 223 223
294 294 295 296 297 296 296 297 297 298 300 301 302 303 303 304 305 304 305 304 301 298 296 296 294 287 281 274 266 261 255 247 241 235 226 220 215 214 216 216 216 217 219
293 293 294 295 296 295 294 295 296 298 299 300 302 303 302 303 305 305 304 302 300 299 298 295 288 284 274 263 258 254 250 242 235 227 222 219 218 217 217 215 214 215 217
291 292 292 293 294 295 294 294 295 297 298 299 301 302 301 302 304 304 303 302 302 300 298 294 287 279 273 261 253 250 247 238 231 225 222 221 219 220 220 217 216 216 218
Height
5717 5715 5713 5711 5709 5707 5705 5703 5700 5697 5695 5693 5692 5690 5689 5687 5686 5685 5684 5684 5685 5685 5686 5686 5687 5687 5687 5688 5689 5690 5691 5693 5694 5695 5698 5701 5703 5706 5709 5713 5716 5720 5723
5709 5707 5705 5702 5700 5698 5695 5693 5690 5687 5685 5682 5681 5679 5677 5676 5674 5672 5671 5670 5670 5670 5670 5670 5670 5671 5671 5671 5672 5673 5674 5676 5677 5678 5680 5684 5688 5691 5693 5696 5700 5704 5707
5700 5698 5696 5694 5691 5689 5686 5683 5680 5677 5675 5673 5671 5668 5666 5664 5663 5661 5659 5658 5656 5656 5655 5655 5654 5654 5655 5655 5656 5656 5657 5659 5661 5661 5663 5666 5671 5674 5678 5680 5683 5687 5691
5693 5690 5687 5685 5682 5680 5677 5674 5671 5668 5665 5663 5661 5658 5655 5653 5651 5649 5647 5645 5643 5642 5641 5641 5640 5640 5640 5640 5640 5640 5641 5642 5644 5645 5646 5649 5653 5656 5661 5665 5667 5670 5674
5684 5681 5679 5676 5673 5671 5668 5665 5662 5659 5656 5653 5650 5647 5644 5642 5639 5637 5635 5633 5630 5629 5628 5627 5626 5626 5625 5625 5625 5625 5626 5627 5628 5629 5631 5633 5636 5638 5642 5648 5652 5655 5659
5676 5673 5670 5667 5665 5662 5659 5656 5653 5650 5646 5643 5639 5636 5633 5630 5628 5625 5623 5620 5618 5616 5615 5614 5613 5612 5611 5610 5610 5610 5610 5611 5613 5614 5615 5617 5620 5623 5625 5630 5635 5639 5644
5667 5664 5661 5658 5655 5653 5650 5647 5643 5640 5636 5633 5629 5626 5622 5619 5616 5613 5611 5608 5606 5604 5602 5600 5599 5598 5597 5596 5595 5595 5596 5596 5597 5598 5600 5601 5604 5607 5609 5613 5617 5622 5627
5657 5654 5651 5649 5646 5643 5640 5637 5634 5630 5627 5623 5619 5615 5612 5608 5605 5601 5598 5595 5593 5591 5588 5586 5584 5583 5582 5581 5580 5579 5580 5580 5581 5582 5584 5586 5588 5590 5593 5596 5600 5605 5610
5648 5645 5642 5639 5636 5633 5631 5627 5624 5620 5616 5612 5609 5605 5601 5597 5593 5590 5586 5582 5578 5576 5573 5571 5570 5568 5567 5566 5565 5564 5564 5564 5565 5566 5567 5569 5572 5574 5577 5581 5585 5589 5595
5639 5635 5632 5629 5627 5624 5621 5617 5613 5610 5606 5602 5597 5593 5589 5584 5580 5577 5572 5568 5564 5561 5558 5556 5555 5553 5552 5550 5549 5549 5548 5548 5549 5549 5551 5553 5555 5559 5562 5565 5570 5574 5579
5630 5626 5623 5620 5617 5614 5610 5607 5603 5599 5595 5590 5585 5581 5576 5571 5567 5563 5558 5554 5551 5547 5544 5542 5539 5538 5536 5534 5533 5533 5532 5532 5533 5534 5535 5537 5540 5544 5548 5551 5556 5561 5565
5620 5616 5613 5610 5607 5604 5600 5596 5592 5587 5583 5578 5574 5569 5564 5559 5555 5550 5546 5541 5537 5534 5530 5527 5524 5522 5520 5518 5517 5516 5516 5516 5517 5519 5520 5522 5525 5530 5534 5538 5544 5549 5554
5611 5607 5604 5601 5597 5593 5589 5585 5581 5576 5571 5567 5562 5557 5552 5547 5543 5538 5533 5529 5524 5521 5517 5514 5510 5507 5505 5502 5501 5500 5500 5500 5502 5504 5506 5509 5512 5517 5521 5526 5532 5537 5542
5601 5598 5595 5591 5587 5583 5578 5574 5569 5564 5560 5555 5550 5545 5541 5535 5531 5526 5521 5517 5512 5508 5504 5500 5497 5493 5490 5488 5486 5485 5485 5486 5487 5489 5492 5496 5499 5504 5509 5514 5520 5525 5530
5592 5588 5584 5580 5576 5572 5568 5563 5558 5553 5548 5543 5538 5534 5529 5524 5519 5514 5510 5506 5501 5497 5492 5488 5484 5481 5477 5474 5473 5472 5472 5472 5474 5476 5480 5484 5488 5492 5497 5503 5508 5514 5519
5583 5579 5574 5570 5566 5561 5557 5552 5547 5542 5537 5532 5528 5523 5518 5514 5509 5504 5499 5495 5490 5486 5481 5477 5472 5469 5465 5462 5460 5459 5459 5461 5463 5465 5469 5473 5477 5482 5487 5492 5498 5504 5508
5573 5569 5565 5560 5555 5551 5546 5542 5537 5532 5527 5522 5518 5513 5508 5504 5499 5494 5489 5484 5480 5475 5471 5466 5461 5457 5454 5451 5449 5448 5449 5450 5453 5455 5459 5463 5467 5471 5477 5482 5487 5493 5498
5563 5559 5555 5550 5546 5541 5537 5532 5527 5522 5517 5512 5508 5504 5499 5494 5489 5484 5479 5475 5470 5466 5461 5456 5452 5448 5445 5442 5440 5439 5440 5441 5443 5446 5450 5454 5458 5463 5468 5473 5478 5483 5489
5552 5549 5545 5540 5536 5532 5527 5523 5518 5513 5508 5503 5498 5494 5489 5484 5479 5475 5470 5466 5461 5457 5452 5448 5444 5441 5438 5435 5433 5432 5432 5434 5436 5439 5442 5446 5450 5455 5459 5464 5470 5475 5481
5543 5539 5535 5531 5527 5523 5518 5513 5508 5503 5498 5494 5489 5484 5479 5475 5470 5466 5461 5457 5453 5449 5445 5441 5437 5434 5431 5429 5427 5426 5426 5428 5430 5433 5435 5439 5442 5447 5452 5457 5462 5468 5474
5533 5529 5526 5522 5518 5513 5509 5504 5499 5495 5490 5486 5481 5476 5471 5466 5461 5457 5453 5449 5445 5441 5437 5434 5431 5428 5426 5424 5422 5421 5422 5423 5425 5427 5429 5433 5436 5440 5445 5451 5456 5463 5468
5524 5520 5516 5512 5508 5504 5500 5495 5491 5487 5482 5478 5473 5468 5463 5458 5453 5449 5446 5442 5438 5434 5431 5428 5426 5424 5421 5419 5418 5417 5417 5418 5420 5422 5424 5428 5431 5436 5441 5446 5451 5456 5462
5515 5511 5507 5503 5500 5495 5491 5486 5482 5478 5474 5470 5465 5461 5456 5451 5447 5443 5439 5435 5432 5428 5425 5423 5421 5420 5417 5415 5414 5414 5414 5414 5416 5418 5420 5423 5427 5431 5436 5441 5446 5450 5456
5505 5501 5498 5494 5491 5486 5482 5478 5474 5470 5466 5462 5458 5454 5450 5446 5441 5437 5433 5429 5426 5423 5421 5418 5417 5415 5414 5413 5412 5412 5412 5412 5413 5415 5418 5421 5424 5428 5433 5437 5441 5446 5452
5496 5492 5489 5485 5481 5477 5473 5470 5466 5462 5458 5455 5451 5447 5443 5440 5436 5432 5427 5424 5421 5417 5416 5414 5412 5411 5411 5410 5409 5409 5410 5410 5412 5413 5416 5418 5421 5425 5429 5433 5437 5442 5447
5486 5483 5480 5476 5472 5469 5465 5461 5458 5454 5451 5448 5444 5441 5437 5433 5429 5426 5422 5418 5415 5413 5410 5409 5408 5407 5407 5406 5406 5406 5407 5408 5410 5411 5414 5416 5419 5422 5426 5430 5434 5439 5443